This is the latest recevied weather packets stored in our database for station/object N5XJB. If no packets are shown the sender has not sent any weather packets the latest 10 day(s).
| Time | Temp. | Humidity | Pressure | Rain* | Wind** | Luminosity | Snow |
|---|---|---|---|---|---|---|---|
| 1777416022 | 31.67° C | 62% | 1011.7 hPa | 0 mm | - | 284 W/m² | - |
| 1777415718 | 31.67° C | 62% | 1011.7 hPa | 0 mm | - | 292 W/m² | - |
| 1777415414 | 31.67° C | 60% | 1011.4 hPa | 0 mm | - | 320 W/m² | - |
| 1777415114 | 31.67° C | 60% | 1011.7 hPa | 0 mm | - | 342 W/m² | - |
| 1777414809 | 32.22° C | 58% | 1011.7 hPa | 0 mm | - | 268 W/m² | - |
| 1777414504 | 32.78° C | 56% | 1011.4 hPa | 0 mm | - | 375 W/m² | - |
| 1777414203 | 32.78° C | 58% | 1011.7 hPa | 0 mm | - | 405 W/m² | - |
| 1777413899 | 32.78° C | 57% | 1011.4 hPa | 0 mm | - | 424 W/m² | - |
| 1777413595 | 32.78° C | 56% | 1011.7 hPa | 0 mm | - | 443 W/m² | - |
| 1777413291 | 33.33° C | 55% | 1012.4 hPa | 0 mm | - | 476 W/m² | - |
| 1777412987 | 33.33° C | 55% | 1012.4 hPa | 0 mm | - | 476 W/m² | - |
| 1777412685 | 32.78° C | 57% | 1012.1 hPa | 0 mm | - | 493 W/m² | - |
| 1777412384 | 33.33° C | 56% | 1012.4 hPa | 0 mm | - | 516 W/m² | - |
| 1777412078 | 32.78° C | 56% | 1012.4 hPa | 0 mm | - | 544 W/m² | - |
| 1777411773 | 32.78° C | 58% | 1012.4 hPa | 0 mm | - | 421 W/m² | - |
| 1777411467 | 32.78° C | 59% | 1012.7 hPa | 0 mm | - | 487 W/m² | - |
| 1777411161 | 32.78° C | 59% | 1012.7 hPa | 0 mm | - | 533 W/m² | - |
| 1777410857 | 33.33° C | 56% | 1012.4 hPa | 0 mm | - | 579 W/m² | - |
| 1777410556 | 33.33° C | 57% | 1012.7 hPa | 0 mm | - | 638 W/m² | - |
| 1777410255 | 33.89° C | 56% | 1012.7 hPa | 0 mm | - | 596 W/m² | - |
| 1777409950 | 33.33° C | 57% | 1012.7 hPa | 0 mm | - | 594 W/m² | - |
| 1777409645 | 32.78° C | 59% | 1012.7 hPa | 0 mm | - | 668 W/m² | - |
| 1777409342 | 32.22° C | 59% | 1013.1 hPa | 0 mm | - | 691 W/m² | - |
| 1777409037 | 32.78° C | 60% | 1013.1 hPa | 0 mm | - | 588 W/m² | - |
| 1777408734 | 33.33° C | 56% | 1013.1 hPa | 0 mm | - | 699 W/m² | - |
* Rain latest hour (hover to see other rain measurements)
** Current wind speed in m/s (hover to see current wind gust speed)